Location: La Comballaz
(46.3780°N, 7.0817°E)
Time: 16:15:25
(UTC+00:00)

Envisat - Pass Details

Date: 13 December 2021
Orbit: 764 x 766 km, 98.2° (Epoch: 16 January)

Event Time Altitude Azimuth Distance (km) Brightness Sun altitude
Rises 16:13:20 0° 187° (S) 3,219 6.8 -5.0°
Reaches altitude 10° 16:15:46 10° 195° (SSW) 2,298 6.2 -5.4°
Maximum altitude 16:20:29 38° 263° (W) 1,156 4.7 -6.1°
Drops below altitude 10° 16:25:13 10° 332° (NNW) 2,313 5.5 -6.8°
Sets 16:27:42 0° 340° (NNW) 3,244 6.2 -7.2°
